User: anonymous   Login
Location: Pasadena, ca
(34.1243°N, 118.1037°W)
Time: 01:06:35
(UTC-07:00)
Language:

Hubble Space Telescope - Orbit

View from above orbital plane
View from above orbital plane
View from above satellite
View from above satellite

Ground track
Ground track

The orbit data is extracted from the following two-line orbital elements,

1 20580U 90037B   17294.94591448 +.00000730 +00000-0 +33978-4 0  9995
2 20580 028.4694 249.8591 0002958 097.5301 323.5144 15.08894002309367
Epoch (UTC): 21 October 2017 22:42:07
Eccentricity: 0.0002958
inclination: 28.4694°
perigee height: 537 km
apogee height: 541 km
right ascension of ascending node: 249.8591°
argument of perigee: 97.5301°
revolutions per day: 15.08894002
mean anomaly at epoch: 323.5144°
orbit number at epoch: 30936

The dashed part of the orbit path shows where the satellite is in the earth's shadow,  

DLR